Central Park, NY

11:42 AM EDT on April 27, 2017 (GMT -0400)
Central Park

Weather History for KNYC - March, 2014

Change the Weather History Date:

Monday, March 24, 2014

  Actual Average Record
Temperature  
Mean Temperature 28 °F 45 °F  
Max Temperature 35 °F 52 °F 76 °F (1988)
Min Temperature 21 °F 37 °F 12 °F (1888)
Degree Days  
Heating Degree Days 37 20  
Month to date heating degree days 674 568  
Since 1 July heating degree days 4344 4090  
Cooling Degree Days 0 0  
Month to date cooling degree days 0 0  
Year to date cooling degree days 0 0  
Moisture  
Dew Point 2 °F    
Average Humidity 35    
Maximum Humidity 45    
Minimum Humidity 24    
Precipitation  
Precipitation 0.00 in 0.15 in 2.05 in (1989)
Month to date precipitation 1.31 3.29  
Year to date precipitation 9.58 10.03  
Snow  
Snow 0.00 in 0.00 in 1.20 in (1956)
Month to date snowfall 0.1 3.4  
Since 1 July snowfall 57.4 24.7  
Snow Depth 0.00 in    
Sea Level Pressure  
Sea Level Pressure 30.18 in    
Wind  
Wind Speed 7 mph (NW)    
Max Wind Speed 15 mph    
Max Gust Speed 27 mph    
Visibility 10 miles    
Events      
T = Trace of Precipitation, MM = Missing Value Source: NWS Daily Summary

Daily Weather History Graph

Daily Weather History Graph

Search for Another Location

Airport or City:

Trip Planner

Search our weather history database for the weather conditions in past years. The results will help you decide how hot, cold, wet, or windy it might be!

Date:

Astronomy

Mar. 24, 2014 Rise Set
Actual Time 6:52 AM EDT 7:12 PM EDT
Civil Twilight 6:25 AM EDT 7:39 PM EDT
Nautical Twilight 5:53 AM EDT 8:11 PM EDT
Astronomical Twilight 5:20 AM EDT 8:44 PM EDT
Moon 2:22 AM EDT (3/24) 12:33 PM EDT (3/24)
Length of Visible Light 13h 14m
Length of Day
12h 19m
Last Quarter, 43% of the Moon is Illuminated
Mar 24
Last Quarter
Mar 30
New
Apr 7
First Quarter
Apr 15
Full
Apr 22
Last Quarter

Hourly Weather History & Observations

Time (EDT) Temp. Windchill Dew Point Humidity Pressure Visibility Wind Dir Wind Speed Gust Speed Precip Events Conditions
12:51 AM 27.0 °F 18.0 °F 3.0 °F 36% 30.14 in 10.0 mi North 9.2 mph 20.7 mph N/A   Clear
1:51 AM 25.0 °F 17.1 °F 3.9 °F 41% 30.16 in 10.0 mi Variable 6.9 mph - N/A   Clear
2:51 AM 23.0 °F 13.1 °F 3.0 °F 42% 30.17 in 10.0 mi North 9.2 mph 17.3 mph N/A   Clear
3:51 AM 23.0 °F 12.4 °F 1.9 °F 40% 30.18 in 10.0 mi North 10.4 mph 19.6 mph N/A   Clear
4:51 AM 21.9 °F 10.4 °F 1.9 °F 42% 30.19 in 10.0 mi North 11.5 mph 17.3 mph N/A   Clear
5:51 AM 21.9 °F 17.2 °F 3.0 °F 44% 30.21 in 10.0 mi Variable 3.5 mph - N/A   Clear
6:51 AM 21.0 °F 11.4 °F 3.0 °F 46% 30.22 in 10.0 mi WNW 8.1 mph - N/A   Clear
7:51 AM 21.9 °F 13.4 °F 3.9 °F 46% 30.24 in 10.0 mi WNW 6.9 mph - N/A   Clear
8:51 AM 24.1 °F 15.2 °F 3.9 °F 42% 30.24 in 10.0 mi North 8.1 mph 18.4 mph N/A   Clear
9:51 AM 25.0 °F 18.1 °F 3.0 °F 39% 30.24 in 10.0 mi North 5.8 mph - N/A   Scattered Clouds
10:51 AM 26.1 °F 20.5 °F 3.0 °F 37% 30.23 in 10.0 mi NW 4.6 mph - N/A   Scattered Clouds
11:51 AM 28.9 °F 23.9 °F 1.9 °F 32% 30.22 in 10.0 mi Variable 4.6 mph - N/A   Scattered Clouds
12:51 PM 30.9 °F 25.2 °F 1.0 °F 28% 30.19 in 10.0 mi Variable 5.8 mph - N/A   Partly Cloudy
1:51 PM 32.0 °F 27.5 °F 1.0 °F 27% 30.17 in 10.0 mi WSW 4.6 mph - N/A   Partly Cloudy
2:51 PM 33.1 °F 24.4 °F 1.0 °F 26% 30.14 in 10.0 mi NW 11.5 mph - N/A   Clear
3:51 PM 34.0 °F 28.0 °F 1.0 °F 25% 30.12 in 10.0 mi Variable 6.9 mph 17.3 mph N/A   Clear
4:51 PM 33.1 °F 30.0 °F -0.0 °F 24% 30.11 in 10.0 mi Variable 3.5 mph - N/A   Clear
5:51 PM 33.1 °F - 1.9 °F 27% 30.12 in 10.0 mi North - - N/A   Clear
6:51 PM 32.0 °F 24.8 °F 1.9 °F 28% 30.13 in 10.0 mi WNW 8.1 mph - N/A   Clear
7:51 PM 30.9 °F 27.5 °F 3.0 °F 31% 30.14 in 10.0 mi Variable 3.5 mph - N/A   Clear
8:51 PM 30.9 °F 24.3 °F 3.0 °F 31% 30.16 in 10.0 mi Variable 6.9 mph - N/A   Clear
9:51 PM 30.0 °F 22.4 °F 3.0 °F 32% 30.17 in 10.0 mi WNW 8.1 mph - N/A   Clear
10:51 PM 28.9 °F 22.8 °F 3.0 °F 33% 30.17 in 10.0 mi NW 5.8 mph - N/A   Clear
11:51 PM 28.9 °F 23.9 °F 3.9 °F 35% 30.17 in 10.0 mi Variable 4.6 mph - N/A   Clear